| time (UTC) | temp C | wind direction | speed KPH | gust KPH | rain 1hr cm | rain 24hr cm | rain mn cm | humidity % | barometer mb |
| 20260504044528 | 14 | 214 | 3.2 | 8.0 | 0.00 | 0.00 | 0.00 | 41 | 999.7 |
| 20260504043022 | 13 | 172 | 1.6 | 6.4 | 0.00 | 0.00 | 0.00 | 42 | 1000.4 |
| 20260504041520 | 13 | 214 | 0.0 | 6.4 | 0.00 | 0.00 | 0.00 | 42 | 1000.2 |
| 20260504040018 | 13 | 179 | 0.0 | 3.2 | 0.00 | 0.00 | 0.00 | 43 | 1001.0 |
| 20260504034516 | 13 | 176 | 0.0 | 3.2 | 0.00 | 0.00 | 0.00 | 42 | 1001.4 |
| 20260504033015 | 13 | 186 | 0.0 | 1.6 | 0.00 | 0.00 | 0.00 | 42 | 1001.2 |
| 20260504031514 | 14 | 198 | 0.0 | 0.0 | 0.00 | 0.00 | 0.00 | 42 | 1001.9 |
| 20260504030012 | 14 | 193 | 0.0 | 1.6 | 0.00 | 0.00 | 0.00 | 40 | 1002.2 |
| 20260504024511 | 15 | 210 | 0.0 | 1.6 | 0.00 | 0.00 | 0.00 | 39 | 1001.8 |
| 20260504023010 | 15 | 212 | 0.0 | 1.6 | 0.00 | 0.00 | 0.00 | 36 | 1002.4 |
| 20260504021509 | 15 | 222 | 0.0 | 3.2 | 0.00 | 0.00 | 0.00 | 35 | 1002.1 |
| 20260504020008 | 16 | 211 | 0.0 | 1.6 | 0.00 | 0.00 | 0.00 | 34 | 1001.9 |
| 20260504014509 | 16 | 211 | 0.0 | 1.6 | 0.00 | 0.00 | 0.00 | 31 | 1002.0 |
| 20260504013009 | 17 | 211 | 0.0 | 1.6 | 0.00 | 0.00 | 0.00 | 30 | 1002.0 |
| 20260504011507 | 18 | 212 | 0.0 | 1.6 | 0.00 | 0.00 | 0.00 | 29 | 1002.0 |
| 20260504010006 | 18 | 228 | 0.0 | 4.8 | 0.00 | 0.00 | 0.00 | 26 | 1002.1 |
| 20260504004509 | 19 | 256 | 1.6 | 8.0 | 0.00 | 0.00 | 0.00 | 26 | 1002.2 |
| 20260504003003 | 20 | 271 | 1.6 | 12.9 | 0.00 | 0.00 | 0.00 | 26 | 1002.3 |
| 20260504001502 | 20 | 223 | 1.6 | 11.3 | 0.00 | 0.00 | 0.00 | 26 | 1002.4 |
| 20260504000003 | 20 | 206 | 3.2 | 12.9 | 0.00 | 0.00 | 0.00 | 27 | 1002.5 |
| 20260503234502 | 20 | 257 | 6.4 | 16.1 | 0.00 | 0.00 | 0.00 | 25 | 1002.4 |
| 20260503233100 | 20 | 239 | 0.0 | 11.3 | 0.00 | 0.00 | 0.00 | 23 | 1002.6 |
| 20260503233006 | 21 | 251 | 1.6 | 11.3 | 0.00 | 0.00 | 0.00 | 23 | 1002.6 |
| 20260503231559 | 21 | 232 | 1.6 | 6.4 | 0.00 | 0.00 | 0.00 | 24 | 1002.6 |
| 20260503230058 | 21 | 235 | 6.4 | 11.3 | 0.00 | 0.00 | 0.00 | 23 | 1002.7 |
| 20260503224658 | 22 | 243 | 6.4 | 19.3 | 0.00 | 0.00 | 0.00 | 22 | 1002.8 |
| 20260503223055 | 22 | 230 | 1.6 | 9.7 | 0.00 | 0.00 | 0.00 | 21 | 1002.9 |
| 20260503221558 | 22 | 123 | 0.0 | 11.3 | 0.00 | 0.00 | 0.00 | 22 | 1002.9 |
| 20260503220053 | 21 | 272 | 6.4 | 14.5 | 0.00 | 0.00 | 0.00 | 22 | 1003.0 |
| 20260503214551 | 22 | 202 | 0.0 | 8.0 | 0.00 | 0.00 | 0.00 | 22 | 1003.3 |
| 20260503213050 | 22 | 299 | 0.0 | 8.0 | 0.00 | 0.00 | 0.00 | 22 | 1003.4 |
| 20260503211601 | 22 | 258 | 3.2 | 9.7 | 0.00 | 0.00 | 0.00 | 23 | 1003.6 |
| 20260503210048 | 22 | 103 | 1.6 | 14.5 | 0.00 | 0.00 | 0.00 | 22 | 1003.7 |
| 20260503204549 | 22 | 248 | 0.0 | 6.4 | 0.00 | 0.00 | 0.00 | 23 | 1003.8 |
| 20260503203103 | 22 | 327 | 1.6 | 8.0 | 0.00 | 0.00 | 0.00 | 23 | 1004.1 |
| 20260503201545 | 22 | 251 | 6.4 | 17.7 | 0.00 | 0.00 | 0.00 | 21 | 1004.1 |
| 20260503200045 | 22 | 259 | 4.8 | 14.5 | 0.00 | 0.00 | 0.00 | 20 | 1004.2 |
| 20260503194547 | 22 | 237 | 1.6 | 9.7 | 0.00 | 0.00 | 0.00 | 23 | 1004.4 |
| 20260503193041 | 21 | 327 | 3.2 | 8.0 | 0.00 | 0.00 | 0.00 | 24 | 1004.3 |
| 20260503191642 | 21 | 242 | 9.7 | 20.9 | 0.00 | 0.00 | 0.00 | 26 | 1004.5 |
| 20260503190045 | 21 | 101 | 1.6 | 11.3 | 0.00 | 0.00 | 0.00 | 26 | 1004.7 |
| 20260503184540 | 21 | 340 | 3.2 | 12.9 | 0.00 | 0.00 | 0.00 | 22 | 1004.8 |
| 20260503183037 | 22 | 154 | 1.6 | 12.9 | 0.00 | 0.00 | 0.00 | 23 | 1004.8 |
| 20260503181535 | 21 | 346 | 0.0 | 20.9 | 0.00 | 0.00 | 0.00 | 26 | 1004.9 |
| 20260503180034 | 21 | 19 | 1.6 | 9.7 | 0.00 | 0.00 | 0.00 | 27 | 1005.0 |
| 20260503174534 | 21 | 343 | 1.6 | 16.1 | 0.00 | 0.00 | 0.00 | 29 | 1005.1 |
| 20260503173045 | 21 | 51 | 1.6 | 6.4 | 0.00 | 0.00 | 0.00 | 35 | 1005.0 |
| 20260503171535 | 20 | 20 | 0.0 | 6.4 | 0.00 | 0.00 | 0.00 | 37 | 1005.2 |
| 20260503081522 | 13 | 189 | 1.6 | 11.3 | 0.00 | 0.00 | 0.00 | 52 | 1004.1 |